FW4719 Weather Reports


time (UTC)temp
C
wind
direction
speed
KPH
gust
KPH
rain 1hr
cm
rain 24hr
cm
rain mn
cm
humidity
%
barometer
mb
20260505214602 8 0 0.0 3.2 0.00 0.00 0.00 80 1011.8
20260505213053 8 15 1.6 6.4 0.00 0.00 0.00 79 1011.8
20260505211626 8 13 0.0 6.4 0.00 0.00 0.00 78 1011.8
20260505210054 8 26 1.6 8.0 0.00 0.00 0.00 77 1011.9
20260505204602 9 344 1.6 8.0 0.00 0.00 0.00 76 1011.8
20260505203056 10 326 0.0 8.0 0.00 0.00 0.00 75 1011.8
20260505201552 10 341 1.6 6.4 0.00 0.00 0.00 74 1011.7
20260505200054 10 355 0.0 4.8 0.00 0.00 0.00 73 1011.6
20260505194553 10 11 1.6 6.4 0.00 0.00 0.00 72 1011.6
20260505193055 11 360 3.2 6.4 0.00 0.00 0.00 71 1011.3
20260505191603 11 350 3.2 8.0 0.00 0.00 0.00 69 1011.2
20260505190106 12 323 3.2 12.9 0.00 0.00 0.00 66 1011.1
20260505184557 12 329 3.2 14.5 0.00 0.00 0.00 65 1011.1
20260505183055 13 13 3.2 14.5 0.00 0.00 0.00 65 1011.1
20260505181639 13 326 3.2 14.5 0.00 0.00 0.00 65 1011.1
20260505180104 13 336 3.2 14.5 0.00 0.00 0.00 66 1011.1
20260505174553 13 342 3.2 14.5 0.00 0.00 0.00 65 1011.1
20260505173053 13 350 3.2 20.9 0.00 0.00 0.00 66 1011.0
20260505171600 13 337 4.8 14.5 0.00 0.00 0.00 66 1011.1
20260505170054 14 28 3.2 16.1 0.00 0.00 0.00 65 1011.0
20260505164558 14 319 4.8 19.3 0.00 0.00 0.00 64 1011.1
20260505163052 15 297 3.2 16.1 0.00 0.00 0.00 64 1011.0
20260505161553 15 299 4.8 12.9 0.00 0.00 0.00 63 1011.1
20260505153056 17 346 4.8 14.5 0.00 0.00 0.00 56 1011.1
20260505151559 17 309 3.2 12.9 0.00 0.00 0.00 56 1011.0
20260505124605 15 24 3.2 9.7 0.00 0.00 0.00 69 1011.7
20260505123113 15 298 4.8 14.5 0.00 0.00 0.00 70 1011.7
20260505121600 14 297 1.6 11.3 0.00 0.00 0.00 72 1011.7
20260505120121 15 321 4.8 14.5 0.00 0.00 0.00 70 1011.7
20260505114603 14 322 3.2 12.9 0.00 0.00 0.00 72 1011.7
20260505113101 13 5 4.8 14.5 0.00 0.00 0.00 74 1011.7
20260505111602 13 360 3.2 12.9 0.00 0.00 0.00 75 1011.7
20260505110118 13 355 3.2 6.4 0.00 0.00 0.00 76 1011.9
20260505101655 12 336 3.2 11.3 0.00 0.00 0.00 79 1011.9
20260505094553 11 27 1.6 6.4 0.00 0.00 0.00 81 1012.0
20260505093053 11 0 1.6 8.0 0.00 0.00 0.00 80 1012.1
20260505091557 11 352 0.0 6.4 0.00 0.00 0.00 80 1011.9
20260505090057 11 52 3.2 9.7 0.00 0.00 0.00 81 1011.9
20260505084604 11 17 1.6 9.7 0.00 0.00 0.00 82 1011.8
20260505083105 11 0 3.2 8.0 0.00 0.00 0.00 82 1011.8
20260505081554 11 25 3.2 8.0 0.00 0.00 0.00 82 1011.7
20260505080100 11 293 1.6 14.5 0.00 0.00 0.00 83 1011.7
20260505074554 11 96 3.2 16.1 0.00 0.00 0.00 83 1011.6
20260505073101 11 35 3.2 17.7 0.00 0.00 0.00 83 1011.5
20260505071555 11 25 3.2 12.9 0.00 0.00 0.00 84 1011.5
20260505070100 10 38 4.8 22.5 0.00 0.00 0.00 84 1011.5
20260505064636 10 94 3.2 11.3 0.00 0.00 0.00 85 1011.6
20260505063053 10 0 0.0 4.8 0.00 0.00 0.00 86 1011.7
20260505061552 10 11 1.6 11.3 0.00 0.00 0.00 86 1011.6
20260505060058 10 79 1.6 14.5 0.00 0.00 0.00 86 1011.4
20260505054558 10 0 0.0 4.8 0.00 0.00 0.00 86 1011.5
20260505053100 9 271 0.0 3.2 0.00 0.00 0.00 86 1011.5
20260505051555 9 299 0.0 3.2 0.00 0.00 0.00 85 1011.3
20260505050110 9 246 0.0 4.8 0.00 0.00 0.00 85 1011.3
20260505041603 10 77 3.2 17.7 0.00 0.00 0.00 84 1011.0
20260505040104 10 128 6.4 20.9 0.00 0.00 0.00 84 1011.1
20260505034611 10 90 4.8 16.1 0.00 0.00 0.00 84 1011.0
20260505033058 10 107 6.4 19.3 0.00 0.00 0.00 84 1011.0
20260505031555 10 99 6.4 20.9 0.00 0.00 0.00 84 1011.1
20260505030122 10 52 4.8 17.7 0.00 0.00 0.00 84 1011.2
20260505024610 11 95 4.8 12.9 0.00 0.00 0.00 84 1011.1
20260505023054 11 94 3.2 17.7 0.00 0.00 0.00 84 1011.2
20260505021554 11 119 3.2 16.1 0.00 0.00 0.00 85 1011.3
20260505020107 11 103 6.4 20.9 0.00 0.00 0.00 85 1011.3
20260505014555 11 73 4.8 17.7 0.00 0.00 0.00 86 1011.5
20260505013054 11 65 8.0 17.7 0.00 0.00 0.00 86 1011.6
20260505011556 11 30 3.2 17.7 0.00 0.00 0.00 86 1011.7
20260505010110 11 42 4.8 17.7 0.00 0.00 0.00 86 1011.7
20260505004620 11 0 1.6 9.7 0.00 0.00 0.00 86 1011.9
20260505003100 11 0 1.6 12.9 0.00 0.00 0.00 86 1011.9
20260505001555 11 0 1.6 6.4 0.00 0.00 0.00 85 1012.1
20260505000111 11 0 0.0 1.6 0.00 0.00 0.00 85 1012.1
20260504234555 11 0 0.0 9.7 0.00 0.00 0.00 86 1012.2
20260504233108 11 67 1.6 12.9 0.00 0.00 0.00 86 1012.2
20260504231625 11 65 0.0 11.3 0.00 0.00 0.00 86 1012.2
20260504230101 11 76 4.8 14.5 0.00 0.00 0.00 87 1012.1
20260504224611 11 103 1.6 8.0 0.00 0.00 0.00 87 1012.2
20260504223058 11 36 1.6 14.5 0.00 0.00 0.00 87 1012.3
20260504221643 10 46 0.0 6.4 0.00 0.00 0.00 87 1012.5
20260504220057 10 307 0.0 3.2 0.00 0.00 0.00 85 1012.5